Time,TemperatureF,DewpointF,PressureIn,WindDirection,WindDirectionDegrees,WindSpeedMPH,WindSpeedGustMPH,Humidity,HourlyPrecipIn,Conditions,Clouds,dailyrainin,SolarRadiationWatts/m^2,SoftwareType,DateUTC
2013-02-17 00:01:00,1.4,-3.9,30.35,WNW,294,0.0,0.0,78,0.00,,,0.00,0,Wunderground v.1.15,2013-02-17 06:01:00,
2013-02-17 00:07:00,1.5,-3.8,30.35,WNW,294,0.0,0.0,78,0.00,,,0.00,0,Wunderground v.1.15,2013-02-17 06:07:00,
2013-02-17 00:13:00,1.4,-4.1,30.35,WNW,294,0.0,0.0,77,0.00,,,0.00,0,Wunderground v.1.15,2013-02-17 06:13:00,
2013-02-17 00:18:00,1.3,-4.2,30.35,WNW,294,0.0,0.0,77,0.00,,,0.00,0,Wunderground v.1.15,2013-02-17 06:18:00,
2013-02-17 00:23:00,1.1,-4.4,30.35,WNW,294,0.0,0.0,77,0.00,,,0.00,0,Wunderground v.1.15,2013-02-17 06:23:00,
2013-02-17 00:29:00,1.0,-4.5,30.35,WNW,294,0.0,0.0,77,0.00,,,0.00,0,Wunderground v.1.15,2013-02-17 06:29:00,
2013-02-17 00:35:00,0.8,-4.7,30.35,WNW,294,0.0,0.0,77,0.00,,,0.00,0,Wunderground v.1.15,2013-02-17 06:35:00,
2013-02-17 00:40:00,0.7,-4.6,30.35,WNW,294,0.0,0.0,78,0.00,,,0.00,0,Wunderground v.1.15,2013-02-17 06:40:00,
2013-02-17 00:46:00,0.7,-4.3,30.35,WNW,294,0.0,0.0,79,0.00,,,0.00,0,Wunderground v.1.15,2013-02-17 06:46:00,
2013-02-17 00:51:00,0.8,-4.2,30.35,WNW,294,0.0,0.0,79,0.00,,,0.00,0,Wunderground v.1.15,2013-02-17 06:51:00,
2013-02-17 00:57:00,0.8,-4.5,30.35,WNW,294,0.0,0.0,78,0.00,,,0.00,0,Wunderground v.1.15,2013-02-17 06:57:00,
2013-02-17 01:03:00,0.5,-4.7,30.35,WNW,294,0.0,0.0,78,0.00,,,0.00,0,Wunderground v.1.15,2013-02-17 07:03:00,
2013-02-17 01:08:00,0.4,-4.6,30.35,WNW,294,0.0,0.0,79,0.00,,,0.00,0,Wunderground v.1.15,2013-02-17 07:08:00,
2013-02-17 01:14:00,0.5,-2.0,30.35,WNW,294,0.0,0.0,89,0.00,,,0.00,0,Wunderground v.1.15,2013-02-17 07:14:00,
2013-02-17 01:19:00,0.4,-4.6,30.35,WNW,294,0.0,0.0,79,0.00,,,0.00,0,Wunderground v.1.15,2013-02-17 07:19:00,
2013-02-17 01:24:00,0.2,-4.8,30.35,WNW,294,0.0,0.0,79,0.00,,,0.00,0,Wunderground v.1.15,2013-02-17 07:24:00,
2013-02-17 01:29:00,0.1,-4.9,30.36,WNW,294,0.0,0.0,79,0.00,,,0.00,0,Wunderground v.1.15,2013-02-17 07:29:00,
2013-02-17 01:35:00,0.1,-4.6,30.36,WNW,294,0.0,0.0,80,0.00,,,0.00,0,Wunderground v.1.15,2013-02-17 07:35:00,
2013-02-17 01:40:00,0.1,-4.6,30.36,WNW,294,0.0,0.0,80,0.00,,,0.00,0,Wunderground v.1.15,2013-02-17 07:40:00,
2013-02-17 01:45:00,0.2,-4.3,30.36,WNW,294,0.0,0.0,81,0.00,,,0.00,0,Wunderground v.1.15,2013-02-17 07:45:00,
2013-02-17 01:51:00,0.2,-4.5,30.36,WNW,294,0.0,0.0,80,0.00,,,0.00,0,Wunderground v.1.15,2013-02-17 07:51:00,
2013-02-17 01:56:00,0.0,-5.0,30.36,WNW,294,0.0,0.0,79,0.00,,,0.00,0,Wunderground v.1.15,2013-02-17 07:56:00,
2013-02-17 02:01:00,-0.2,-5.2,30.36,WNW,294,0.0,0.0,79,0.00,,,0.00,0,Wunderground v.1.15,2013-02-17 08:01:00,
2013-02-17 02:06:00,-0.3,-5.3,30.36,WNW,294,0.0,0.0,79,0.00,,,0.00,0,Wunderground v.1.15,2013-02-17 08:06:00,
2013-02-17 02:11:00,-0.4,-5.1,30.36,WNW,294,0.0,0.0,80,0.00,,,0.00,0,Wunderground v.1.15,2013-02-17 08:11:00,
2013-02-17 02:16:00,-0.5,-5.2,30.36,WNW,294,0.0,0.0,80,0.00,,,0.00,0,Wunderground v.1.15,2013-02-17 08:16:00,
2013-02-17 02:21:00,-0.4,-4.6,30.36,WNW,294,0.0,0.0,82,0.00,,,0.00,0,Wunderground v.1.15,2013-02-17 08:21:00,
2013-02-17 02:26:00,-0.3,-4.5,30.36,WNW,294,0.0,0.0,82,0.00,,,0.00,0,Wunderground v.1.15,2013-02-17 08:26:00,
2013-02-17 02:31:00,-0.4,-4.6,30.36,WNW,294,0.0,0.0,82,0.00,,,0.00,0,Wunderground v.1.15,2013-02-17 08:31:00,
2013-02-17 02:36:00,-0.4,-4.6,30.36,WNW,294,0.0,0.0,82,0.00,,,0.00,0,Wunderground v.1.15,2013-02-17 08:36:00,
2013-02-17 02:41:00,-0.3,-4.5,30.36,WNW,294,0.0,0.0,82,0.00,,,0.00,0,Wunderground v.1.15,2013-02-17 08:41:00,
2013-02-17 02:46:00,-0.2,-4.4,30.36,WNW,294,0.0,0.0,82,0.00,,,0.00,0,Wunderground v.1.15,2013-02-17 08:46:00,
2013-02-17 02:51:00,-0.1,-4.3,30.36,WNW,294,0.0,0.0,82,0.00,,,0.00,0,Wunderground v.1.15,2013-02-17 08:51:00,
2013-02-17 02:56:00,-0.1,-4.5,30.36,WNW,294,0.0,0.0,81,0.00,,,0.00,0,Wunderground v.1.15,2013-02-17 08:56:00,
2013-02-17 03:01:00,0.0,-1.8,30.36,WNW,294,0.0,0.0,92,0.00,,,0.00,0,Wunderground v.1.15,2013-02-17 09:01:00,
2013-02-17 03:06:00,-0.1,-4.3,30.36,WNW,294,0.0,0.0,82,0.00,,,0.00,0,Wunderground v.1.15,2013-02-17 09:06:00,
2013-02-17 03:11:00,-0.1,-4.3,30.36,WNW,294,0.0,0.0,82,0.00,,,0.00,0,Wunderground v.1.15,2013-02-17 09:11:00,
2013-02-17 03:16:00,0.0,-3.9,30.36,WNW,294,0.0,0.0,83,0.00,,,0.00,0,Wunderground v.1.15,2013-02-17 09:16:00,
2013-02-17 03:21:00,-0.1,-4.3,30.36,WNW,294,0.0,0.0,82,0.00,,,0.00,0,Wunderground v.1.15,2013-02-17 09:21:00,
2013-02-17 03:26:00,-0.4,-4.8,30.36,WNW,294,0.0,0.0,81,0.00,,,0.00,0,Wunderground v.1.15,2013-02-17 09:26:00,
2013-02-17 03:31:00,-0.3,-4.2,30.35,WNW,294,0.0,0.0,83,0.00,,,0.00,0,Wunderground v.1.15,2013-02-17 09:31:00,
2013-02-17 03:36:00,-0.1,-4.0,30.36,WNW,294,0.0,0.0,83,0.00,,,0.00,0,Wunderground v.1.15,2013-02-17 09:36:00,
2013-02-17 03:41:00,-0.1,-4.0,30.36,WNW,294,0.0,0.0,83,0.00,,,0.00,0,Wunderground v.1.15,2013-02-17 09:41:00,
2013-02-17 03:46:00,-0.2,-4.1,30.35,WNW,294,0.0,0.0,83,0.00,,,0.00,0,Wunderground v.1.15,2013-02-17 09:46:00,
2013-02-17 03:51:00,-0.2,-4.1,30.35,WNW,294,0.0,0.0,83,0.00,,,0.00,0,Wunderground v.1.15,2013-02-17 09:51:00,
2013-02-17 03:56:00,-0.2,-4.1,30.35,WNW,294,0.0,0.0,83,0.00,,,0.00,0,Wunderground v.1.15,2013-02-17 09:56:00,
2013-02-17 04:01:00,-0.2,-4.1,30.36,WNW,294,0.0,0.0,83,0.00,,,0.00,0,Wunderground v.1.15,2013-02-17 10:01:00,
2013-02-17 04:06:00,-0.4,-4.6,30.36,WNW,294,0.0,0.0,82,0.00,,,0.00,0,Wunderground v.1.15,2013-02-17 10:06:00,
2013-02-17 04:11:00,-0.5,-4.4,30.35,WNW,294,0.0,0.0,83,0.00,,,0.00,0,Wunderground v.1.15,2013-02-17 10:11:00,
2013-02-17 04:16:00,-0.8,-5.0,30.35,WNW,294,0.0,0.0,82,0.00,,,0.00,0,Wunderground v.1.15,2013-02-17 10:16:00,
2013-02-17 04:22:00,-1.0,-4.9,30.35,WNW,294,0.0,0.0,83,0.00,,,0.00,0,Wunderground v.1.15,2013-02-17 10:22:00,
2013-02-17 04:27:00,-1.0,-4.7,30.35,WNW,294,0.0,0.0,84,0.00,,,0.00,0,Wunderground v.1.15,2013-02-17 10:27:00,
2013-02-17 04:32:00,-1.2,-5.1,30.35,WNW,294,0.0,0.0,83,0.00,,,0.00,0,Wunderground v.1.15,2013-02-17 10:32:00,
2013-02-17 04:36:00,-1.2,-4.9,30.35,WNW,294,0.0,0.0,84,0.00,,,0.00,0,Wunderground v.1.15,2013-02-17 10:36:00,
2013-02-17 04:41:00,-0.9,-4.3,30.35,WNW,294,0.0,0.0,85,0.00,,,0.00,0,Wunderground v.1.15,2013-02-17 10:41:00,
2013-02-17 04:47:00,-0.8,-4.5,30.35,WNW,294,0.0,0.0,84,0.00,,,0.00,0,Wunderground v.1.15,2013-02-17 10:47:00,
2013-02-17 04:52:00,-0.8,-4.2,30.35,WNW,294,0.0,0.0,85,0.00,,,0.00,0,Wunderground v.1.15,2013-02-17 10:52:00,
2013-02-17 04:57:00,-0.7,-4.1,30.35,WNW,294,0.0,0.0,85,0.00,,,0.00,0,Wunderground v.1.15,2013-02-17 10:57:00,
2013-02-17 05:02:00,-0.6,-4.0,30.36,WNW,294,0.0,0.0,85,0.00,,,0.00,0,Wunderground v.1.15,2013-02-17 11:02:00,
2013-02-17 05:07:00,-0.8,-4.2,30.35,WNW,294,0.0,0.0,85,0.00,,,0.00,0,Wunderground v.1.15,2013-02-17 11:07:00,
2013-02-17 05:11:00,-1.0,-4.4,30.36,WNW,294,0.0,0.0,85,0.00,,,0.00,0,Wunderground v.1.15,2013-02-17 11:11:00,
2013-02-17 05:17:00,-1.1,-4.5,30.36,WNW,294,0.0,0.0,85,0.00,,,0.00,0,Wunderground v.1.15,2013-02-17 11:17:00,
2013-02-17 05:22:00,-1.1,-4.3,30.36,WNW,294,0.0,0.0,86,0.00,,,0.00,0,Wunderground v.1.15,2013-02-17 11:22:00,
2013-02-17 05:27:00,-1.1,-4.5,30.36,WNW,294,0.0,0.0,85,0.00,,,0.00,0,Wunderground v.1.15,2013-02-17 11:27:00,
2013-02-17 05:32:00,-1.2,-4.4,30.36,WNW,294,0.0,0.0,86,0.00,,,0.00,0,Wunderground v.1.15,2013-02-17 11:32:00,
2013-02-17 05:37:00,-1.2,-4.4,30.37,WNW,294,0.0,0.0,86,0.00,,,0.00,0,Wunderground v.1.15,2013-02-17 11:37:00,
2013-02-17 05:42:00,-1.1,-4.3,30.37,WNW,294,0.0,0.0,86,0.00,,,0.00,0,Wunderground v.1.15,2013-02-17 11:42:00,
2013-02-17 05:47:00,-1.0,-3.9,30.37,WNW,294,0.0,0.0,87,0.00,,,0.00,0,Wunderground v.1.15,2013-02-17 11:47:00,
2013-02-17 05:52:00,-0.9,-3.8,30.37,WNW,294,0.0,0.0,87,0.00,,,0.00,0,Wunderground v.1.15,2013-02-17 11:52:00,
2013-02-17 05:57:00,-0.9,-4.1,30.36,WNW,294,0.0,0.0,86,0.00,,,0.00,0,Wunderground v.1.15,2013-02-17 11:57:00,
2013-02-17 06:02:00,-1.0,-4.2,30.36,WNW,294,0.0,0.0,86,0.00,,,0.00,0,Wunderground v.1.15,2013-02-17 12:02:00,
2013-02-17 06:07:00,-1.0,-4.2,30.36,WNW,294,0.0,0.0,86,0.00,,,0.00,0,Wunderground v.1.15,2013-02-17 12:07:00,
2013-02-17 06:12:00,-0.9,-3.8,30.36,WNW,294,0.0,0.0,87,0.00,,,0.00,0,Wunderground v.1.15,2013-02-17 12:12:00,
2013-02-17 06:17:00,-1.1,-4.3,30.36,WNW,294,0.0,0.0,86,0.00,,,0.00,0,Wunderground v.1.15,2013-02-17 12:17:00,
2013-02-17 06:22:00,-1.3,-4.5,30.37,WNW,294,0.0,0.0,86,0.00,,,0.00,0,Wunderground v.1.15,2013-02-17 12:22:00,
2013-02-17 06:27:00,-1.5,-4.7,30.37,WNW,294,0.0,0.0,86,0.00,,,0.00,0,Wunderground v.1.15,2013-02-17 12:27:00,
2013-02-17 06:32:00,-1.6,-4.8,30.37,WNW,294,0.0,0.0,86,0.00,,,0.00,0,Wunderground v.1.15,2013-02-17 12:32:00,
2013-02-17 06:50:00,-1.4,-4.3,30.37,WNW,294,0.0,0.0,87,0.00,,,0.00,5,Wunderground v.1.15,2013-02-17 12:50:00,
2013-02-17 07:17:00,-2.1,-5.3,30.37,WNW,294,0.0,0.0,86,0.00,,,0.00,19,Wunderground v.1.15,2013-02-17 13:17:00,
2013-02-17 07:22:00,-1.9,-4.8,30.37,WNW,294,0.0,0.0,87,0.00,,,0.00,21,Wunderground v.1.15,2013-02-17 13:22:00,
2013-02-17 07:35:00,-1.6,-4.5,30.37,WNW,294,0.0,0.0,87,0.00,,,0.00,32,Wunderground v.1.15,2013-02-17 13:35:00,
2013-02-17 07:40:00,-0.9,-3.6,30.37,WNW,294,0.0,0.0,88,0.00,,,0.00,79,Wunderground v.1.15,2013-02-17 13:40:00,
2013-02-17 07:45:00,-0.4,-2.9,30.37,WNW,294,0.0,0.0,89,0.00,,,0.00,125,Wunderground v.1.15,2013-02-17 13:45:00,
2013-02-17 07:50:00,0.4,-2.1,30.38,WNW,294,0.0,0.0,89,0.00,,,0.00,149,Wunderground v.1.15,2013-02-17 13:50:00,
2013-02-17 07:57:00,2.0,-0.3,30.37,WNW,294,0.0,0.0,90,0.00,,,0.00,178,Wunderground v.1.15,2013-02-17 13:57:00,
2013-02-17 08:02:00,3.4,1.4,30.37,WNW,294,0.0,0.0,91,0.00,,,0.00,193,Wunderground v.1.15,2013-02-17 14:02:00,
2013-02-17 08:07:00,4.5,2.2,30.36,WNW,294,0.0,0.0,90,0.00,,,0.00,207,Wunderground v.1.15,2013-02-17 14:07:00,
2013-02-17 08:12:00,5.8,3.3,30.37,WNW,294,0.0,0.0,89,0.00,,,0.00,221,Wunderground v.1.15,2013-02-17 14:12:00,
2013-02-17 08:17:00,7.1,4.3,30.37,WNW,294,0.0,0.0,88,0.00,,,0.00,236,Wunderground v.1.15,2013-02-17 14:17:00,
2013-02-17 08:22:00,8.1,4.5,30.37,WNW,294,0.0,0.0,85,0.00,,,0.00,251,Wunderground v.1.15,2013-02-17 14:22:00,
2013-02-17 08:27:00,8.6,4.0,30.37,WNW,294,0.0,0.0,81,0.00,,,0.00,265,Wunderground v.1.15,2013-02-17 14:27:00,
2013-02-17 08:32:00,9.0,3.5,30.37,WNW,294,0.0,0.0,78,0.00,,,0.00,279,Wunderground v.1.15,2013-02-17 14:32:00,
2013-02-17 08:37:00,9.2,3.2,30.37,WNW,294,0.0,0.0,76,0.00,,,0.00,292,Wunderground v.1.15,2013-02-17 14:37:00,
2013-02-17 08:42:00,9.4,3.1,30.37,WNW,294,0.0,0.0,75,0.00,,,0.00,308,Wunderground v.1.15,2013-02-17 14:42:00,
2013-02-17 08:47:00,9.5,2.6,30.37,WNW,294,0.0,1.0,73,0.00,,,0.00,325,Wunderground v.1.15,2013-02-17 14:47:00,
2013-02-17 08:52:00,9.5,2.0,30.38,WNW,294,0.0,0.0,71,0.00,,,0.00,343,Wunderground v.1.15,2013-02-17 14:52:00,
2013-02-17 09:53:00,14.6,4.3,30.36,WNW,294,0.0,0.0,63,0.00,,,0.00,497,Wunderground v.1.15,2013-02-17 15:53:00,
2013-02-17 09:58:00,15.0,4.3,30.37,WNW,294,0.0,1.0,62,0.00,,,0.00,508,Wunderground v.1.15,2013-02-17 15:58:00,
2013-02-17 10:03:00,15.4,4.3,30.37,SSW,198,4.0,6.0,61,0.00,,,0.00,519,Wunderground v.1.15,2013-02-17 16:03:00,
2013-02-17 10:08:00,15.3,3.9,30.37,South,182,3.0,6.0,60,0.00,,,0.00,529,Wunderground v.1.15,2013-02-17 16:08:00,
2013-02-17 10:13:00,15.3,3.5,30.36,SSE,167,2.0,6.0,59,0.00,,,0.00,536,Wunderground v.1.15,2013-02-17 16:13:00,
2013-02-17 10:18:00,15.4,3.6,30.36,SSE,153,2.0,7.0,59,0.00,,,0.00,545,Wunderground v.1.15,2013-02-17 16:18:00,
2013-02-17 10:23:00,15.4,2.9,30.35,SSE,166,4.0,9.0,57,0.00,,,0.00,555,Wunderground v.1.15,2013-02-17 16:23:00,
2013-02-17 10:28:00,15.5,3.3,30.36,SSE,147,6.0,9.0,58,0.00,,,0.00,564,Wunderground v.1.15,2013-02-17 16:28:00,
2013-02-17 10:33:00,15.5,3.0,30.36,SE,139,7.0,9.0,57,0.00,,,0.00,575,Wunderground v.1.15,2013-02-17 16:33:00,
2013-02-17 10:38:00,15.5,3.0,30.35,SE,132,5.0,10.0,57,0.00,,,0.00,582,Wunderground v.1.15,2013-02-17 16:38:00,
2013-02-17 10:43:00,15.5,3.0,30.36,SE,126,6.0,11.0,57,0.00,,,0.00,591,Wunderground v.1.15,2013-02-17 16:43:00,
2013-02-17 10:48:00,15.4,2.9,30.36,SE,130,9.0,11.0,57,0.00,,,0.00,603,Wunderground v.1.15,2013-02-17 16:48:00,
2013-02-17 10:53:00,15.5,3.0,30.36,SE,134,9.0,12.0,57,0.00,,,0.00,617,Wunderground v.1.15,2013-02-17 16:53:00,
2013-02-17 10:58:00,15.8,3.6,30.36,SE,142,8.0,12.0,58,0.00,,,0.00,594,Wunderground v.1.15,2013-02-17 16:58:00,
2013-02-17 11:03:00,16.0,3.4,30.36,SE,142,10.0,11.0,57,0.00,,,0.00,596,Wunderground v.1.15,2013-02-17 17:03:00,
2013-02-17 11:08:00,16.1,3.1,30.36,South,175,11.0,11.0,56,0.00,,,0.00,575,Wunderground v.1.15,2013-02-17 17:08:00,
2013-02-17 11:13:00,15.8,2.9,30.37,SE,146,9.0,12.0,56,0.00,,,0.00,622,Wunderground v.1.15,2013-02-17 17:13:00,
2013-02-17 11:18:00,15.6,2.7,30.37,SE,138,8.0,13.0,56,0.00,,,0.00,524,Wunderground v.1.15,2013-02-17 17:18:00,
2013-02-17 11:23:00,15.4,2.5,30.36,SE,138,8.0,12.0,56,0.00,,,0.00,642,Wunderground v.1.15,2013-02-17 17:23:00,
2013-02-17 11:28:00,15.6,3.4,30.37,SSE,157,9.0,12.0,58,0.00,,,0.00,652,Wunderground v.1.15,2013-02-17 17:28:00,
2013-02-17 11:34:00,15.6,2.7,30.36,South,173,4.0,13.0,56,0.00,,,0.00,626,Wunderground v.1.15,2013-02-17 17:34:00,
2013-02-17 11:39:00,15.6,3.1,30.35,SSE,159,8.0,14.0,57,0.00,,,0.00,633,Wunderground v.1.15,2013-02-17 17:39:00,
2013-02-17 11:44:00,15.8,3.6,30.35,SSE,167,10.0,11.0,58,0.00,,,0.00,652,Wunderground v.1.15,2013-02-17 17:44:00,
2013-02-17 11:49:00,16.0,3.8,30.35,SSE,150,4.0,11.0,58,0.00,,,0.00,652,Wunderground v.1.15,2013-02-17 17:49:00,
2013-02-17 11:54:00,16.2,3.2,30.34,SE,144,5.0,11.0,56,0.00,,,0.00,652,Wunderground v.1.15,2013-02-17 17:54:00,
2013-02-17 11:59:00,16.4,3.8,30.34,South,178,4.0,12.0,57,0.00,,,0.00,652,Wunderground v.1.15,2013-02-17 17:59:00,
2013-02-17 12:04:00,16.4,3.8,30.34,SSE,161,7.0,12.0,57,0.00,,,0.00,654,Wunderground v.1.15,2013-02-17 18:04:00,
2013-02-17 12:09:00,16.3,4.1,30.34,SE,135,7.0,12.0,58,0.00,,,0.00,654,Wunderground v.1.15,2013-02-17 18:09:00,
2013-02-17 12:14:00,16.2,4.4,30.34,SSE,163,5.0,10.0,59,0.00,,,0.00,649,Wunderground v.1.15,2013-02-17 18:14:00,
2013-02-17 12:19:00,16.5,5.0,30.34,SSE,150,10.0,11.0,60,0.00,,,0.00,652,Wunderground v.1.15,2013-02-17 18:19:00,
2013-02-17 12:24:00,16.6,4.7,30.33,SSE,150,5.0,12.0,59,0.00,,,0.00,650,Wunderground v.1.15,2013-02-17 18:24:00,
2013-02-17 12:29:00,16.7,4.8,30.33,SSE,150,11.0,13.0,59,0.00,,,0.00,650,Wunderground v.1.15,2013-02-17 18:29:00,
2013-02-17 12:34:00,16.6,4.4,30.33,South,169,8.0,12.0,58,0.00,,,0.00,647,Wunderground v.1.15,2013-02-17 18:34:00,
2013-02-17 12:39:00,16.6,4.4,30.33,SE,143,9.0,14.0,58,0.00,,,0.00,647,Wunderground v.1.15,2013-02-17 18:39:00,
2013-02-17 12:44:00,16.7,4.8,30.33,SSE,168,7.0,13.0,59,0.00,,,0.00,643,Wunderground v.1.15,2013-02-17 18:44:00,
2013-02-17 12:49:00,16.8,4.9,30.33,South,172,8.0,13.0,59,0.00,,,0.00,640,Wunderground v.1.15,2013-02-17 18:49:00,
2013-02-17 12:54:00,17.1,5.6,30.33,SSE,157,4.0,11.0,60,0.00,,,0.00,636,Wunderground v.1.15,2013-02-17 18:54:00,
2013-02-17 12:59:00,17.2,5.7,30.32,South,173,5.0,12.0,60,0.00,,,0.00,628,Wunderground v.1.15,2013-02-17 18:59:00,
2013-02-17 13:04:00,17.3,5.4,30.32,SSE,168,10.0,12.0,59,0.00,,,0.00,629,Wunderground v.1.15,2013-02-17 19:04:00,
2013-02-17 13:09:00,17.4,5.9,30.32,SSE,154,12.0,12.0,60,0.00,,,0.00,624,Wunderground v.1.15,2013-02-17 19:09:00,
2013-02-17 13:14:00,17.5,6.0,30.31,SE,143,7.0,10.0,60,0.00,,,0.00,619,Wunderground v.1.15,2013-02-17 19:14:00,
2013-02-17 13:19:00,17.8,5.9,30.31,SE,146,7.0,12.0,59,0.00,,,0.00,613,Wunderground v.1.15,2013-02-17 19:19:00,
2013-02-17 13:24:00,17.8,5.9,30.31,SSE,161,7.0,12.0,59,0.00,,,0.00,608,Wunderground v.1.15,2013-02-17 19:24:00,
2013-02-17 13:29:00,17.9,6.0,30.31,SSE,163,8.0,13.0,59,0.00,,,0.00,603,Wunderground v.1.15,2013-02-17 19:29:00,
2013-02-17 13:34:00,17.9,6.0,30.31,SE,130,8.0,13.0,59,0.00,,,0.00,598,Wunderground v.1.15,2013-02-17 19:34:00,
2013-02-17 13:39:00,17.9,6.0,30.30,SE,145,11.0,14.0,59,0.00,,,0.00,591,Wunderground v.1.15,2013-02-17 19:39:00,
2013-02-17 13:44:00,17.9,6.0,30.30,SE,145,7.0,12.0,59,0.00,,,0.00,585,Wunderground v.1.15,2013-02-17 19:44:00,
2013-02-17 13:49:00,18.1,6.5,30.30,SSE,168,10.0,12.0,60,0.00,,,0.00,578,Wunderground v.1.15,2013-02-17 19:49:00,
2013-02-17 13:54:00,18.2,6.6,30.30,SSE,161,9.0,13.0,60,0.00,,,0.00,571,Wunderground v.1.15,2013-02-17 19:54:00,
2013-02-17 13:59:00,18.2,6.6,30.30,South,170,11.0,15.0,60,0.00,,,0.00,559,Wunderground v.1.15,2013-02-17 19:59:00,
2013-02-17 14:04:00,18.2,7.0,30.30,SSE,161,12.0,15.0,61,0.00,,,0.00,550,Wunderground v.1.15,2013-02-17 20:04:00,
2013-02-17 14:09:00,18.0,6.4,30.30,SE,138,8.0,17.0,60,0.00,,,0.00,540,Wunderground v.1.15,2013-02-17 20:09:00,
2013-02-17 14:14:00,18.1,6.5,30.29,South,185,11.0,16.0,60,0.00,,,0.00,531,Wunderground v.1.15,2013-02-17 20:14:00,
2013-02-17 14:19:00,18.3,6.7,30.29,SE,126,12.0,16.0,60,0.00,,,0.00,522,Wunderground v.1.15,2013-02-17 20:19:00,
2013-02-17 14:24:00,18.4,7.2,30.28,SSE,160,10.0,13.0,61,0.00,,,0.00,506,Wunderground v.1.15,2013-02-17 20:24:00,
2013-02-17 14:29:00,18.4,6.8,30.29,SSE,159,8.0,14.0,60,0.00,,,0.00,496,Wunderground v.1.15,2013-02-17 20:29:00,
2013-02-17 14:34:00,18.6,7.4,30.28,SE,144,11.0,14.0,61,0.00,,,0.00,466,Wunderground v.1.15,2013-02-17 20:34:00,
2013-02-17 14:39:00,18.7,7.1,30.28,SSE,151,11.0,14.0,60,0.00,,,0.00,455,Wunderground v.1.15,2013-02-17 20:39:00,
2013-02-17 14:44:00,18.9,7.3,30.28,SSE,163,10.0,13.0,60,0.00,,,0.00,457,Wunderground v.1.15,2013-02-17 20:44:00,
2013-02-17 14:49:00,19.0,7.4,30.28,South,175,10.0,13.0,60,0.00,,,0.00,441,Wunderground v.1.15,2013-02-17 20:49:00,
2013-02-17 14:54:00,18.9,7.3,30.27,SSE,155,8.0,14.0,60,0.00,,,0.00,425,Wunderground v.1.15,2013-02-17 20:54:00,
2013-02-17 14:59:00,18.9,6.9,30.28,SSE,154,9.0,14.0,59,0.00,,,0.00,406,Wunderground v.1.15,2013-02-17 20:59:00,
2013-02-17 15:04:00,19.0,7.4,30.27,SSE,157,11.0,15.0,60,0.00,,,0.00,410,Wunderground v.1.15,2013-02-17 21:04:00,
2013-02-17 15:09:00,19.2,7.2,30.27,SSE,160,10.0,15.0,59,0.00,,,0.00,434,Wunderground v.1.15,2013-02-17 21:09:00,
2013-02-17 15:14:00,19.4,7.8,30.27,SSE,156,7.0,14.0,60,0.00,,,0.00,427,Wunderground v.1.15,2013-02-17 21:14:00,
2013-02-17 15:19:00,19.5,7.5,30.27,South,169,9.0,14.0,59,0.00,,,0.00,394,Wunderground v.1.15,2013-02-17 21:19:00,
2013-02-17 15:24:00,19.6,7.2,30.26,SSE,162,9.0,13.0,58,0.00,,,0.00,392,Wunderground v.1.15,2013-02-17 21:24:00,
2013-02-17 15:30:00,19.8,7.4,30.26,SSE,152,9.0,9.0,58,0.00,,,0.00,383,Wunderground v.1.15,2013-02-17 21:30:00,
2013-02-17 15:35:00,20.0,7.6,30.25,SE,144,7.0,12.0,58,0.00,,,0.00,338,Wunderground v.1.15,2013-02-17 21:35:00,
2013-02-17 15:40:00,20.3,8.6,30.25,SE,127,4.0,7.0,60,0.00,,,0.00,308,Wunderground v.1.15,2013-02-17 21:40:00,
2013-02-17 15:45:00,20.3,7.9,30.25,SE,132,14.0,14.0,58,0.00,,,0.00,315,Wunderground v.1.15,2013-02-17 21:45:00,
2013-02-17 15:50:00,20.1,7.3,30.25,SE,136,8.0,9.0,57,0.00,,,0.00,214,Wunderground v.1.15,2013-02-17 21:50:00,
2013-02-17 15:55:00,20.0,8.3,30.25,ESE,113,5.0,11.0,60,0.00,,,0.00,213,Wunderground v.1.15,2013-02-17 21:55:00,
2013-02-17 16:00:00,19.8,8.5,30.24,ESE,117,5.0,7.0,61,0.00,,,0.00,128,Wunderground v.1.15,2013-02-17 22:00:00,
2013-02-17 16:05:00,19.5,8.6,30.24,ESE,104,6.0,9.0,62,0.00,,,0.00,162,Wunderground v.1.15,2013-02-17 22:05:00,
2013-02-17 16:10:00,19.4,8.8,30.25,ESE,108,2.0,6.0,63,0.00,,,0.00,207,Wunderground v.1.15,2013-02-17 22:10:00,
2013-02-17 16:15:00,19.6,8.3,30.25,SE,133,9.0,11.0,61,0.00,,,0.00,230,Wunderground v.1.15,2013-02-17 22:15:00,
2013-02-17 16:20:00,19.8,8.5,30.25,SSE,159,8.0,9.0,61,0.00,,,0.00,190,Wunderground v.1.15,2013-02-17 22:20:00,
2013-02-17 16:25:00,19.8,8.5,30.24,SE,138,4.0,12.0,61,0.00,,,0.00,163,Wunderground v.1.15,2013-02-17 22:25:00,
2013-02-17 16:30:00,19.8,8.5,30.24,SE,129,7.0,9.0,61,0.00,,,0.00,121,Wunderground v.1.15,2013-02-17 22:30:00,
2013-02-17 16:35:00,19.8,8.5,30.24,SE,140,6.0,12.0,61,0.00,,,0.00,116,Wunderground v.1.15,2013-02-17 22:35:00,
2013-02-17 16:40:00,19.7,8.4,30.24,SE,144,5.0,8.0,61,0.00,,,0.00,105,Wunderground v.1.15,2013-02-17 22:40:00,
2013-02-17 16:45:00,19.7,8.4,30.24,SSE,150,6.0,9.0,61,0.00,,,0.00,69,Wunderground v.1.15,2013-02-17 22:45:00,
2013-02-17 16:50:00,19.7,8.4,30.23,SE,139,5.0,9.0,61,0.00,,,0.00,63,Wunderground v.1.15,2013-02-17 22:50:00,
2013-02-17 16:55:00,19.6,8.3,30.23,SE,136,6.0,11.0,61,0.00,,,0.00,44,Wunderground v.1.15,2013-02-17 22:55:00,
2013-02-17 17:00:00,19.6,8.3,30.23,SE,132,7.0,8.0,61,0.00,,,0.00,28,Wunderground v.1.15,2013-02-17 23:00:00,
2013-02-17 17:06:00,19.4,8.1,30.23,SE,130,4.0,9.0,61,0.00,,,0.00,18,Wunderground v.1.15,2013-02-17 23:06:00,
2013-02-17 17:11:00,19.0,8.1,30.23,SE,128,4.0,5.0,62,0.00,,,0.00,12,Wunderground v.1.15,2013-02-17 23:11:00,
2013-02-17 17:16:00,18.8,8.3,30.23,SE,128,1.0,6.0,63,0.00,,,0.00,11,Wunderground v.1.15,2013-02-17 23:16:00,
2013-02-17 17:21:00,18.5,8.0,30.23,SE,127,1.0,2.0,63,0.00,,,0.00,7,Wunderground v.1.15,2013-02-17 23:21:00,
2013-02-17 17:26:00,18.3,7.8,30.23,SE,127,4.0,4.0,63,0.00,,,0.00,5,Wunderground v.1.15,2013-02-17 23:26:00,
2013-02-17 17:31:00,18.2,8.1,30.22,SE,127,2.0,2.0,64,0.00,,,0.00,0,Wunderground v.1.15,2013-02-17 23:31:00,
2013-02-17 17:36:00,18.2,8.1,30.22,SE,127,2.0,5.0,64,0.00,,,0.00,0,Wunderground v.1.15,2013-02-17 23:36:00,
2013-02-17 17:41:00,18.0,7.9,30.22,SE,127,1.0,2.0,64,0.00,,,0.00,0,Wunderground v.1.15,2013-02-17 23:41:00,
2013-02-17 17:46:00,17.8,7.7,30.22,SE,127,4.0,4.0,64,0.00,,,0.00,0,Wunderground v.1.15,2013-02-17 23:46:00,
2013-02-17 17:51:00,17.6,7.8,30.22,SE,127,2.0,4.0,65,0.00,,,0.00,0,Wunderground v.1.15,2013-02-17 23:51:00,
2013-02-17 17:56:00,17.3,7.5,30.22,SE,127,2.0,4.0,65,0.00,,,0.00,0,Wunderground v.1.15,2013-02-17 23:56:00,
2013-02-17 18:01:00,17.3,7.9,30.22,SE,126,4.0,4.0,66,0.00,,,0.00,0,Wunderground v.1.15,2013-02-18 00:01:00,
2013-02-17 18:06:00,17.2,7.8,30.22,SE,126,4.0,6.0,66,0.00,,,0.00,0,Wunderground v.1.15,2013-02-18 00:06:00,
2013-02-17 18:11:00,17.2,7.8,30.22,SE,126,4.0,4.0,66,0.00,,,0.00,0,Wunderground v.1.15,2013-02-18 00:11:00,
2013-02-17 18:16:00,17.1,7.7,30.22,SE,126,0.0,4.0,66,0.00,,,0.00,0,Wunderground v.1.15,2013-02-18 00:16:00,
2013-02-17 18:21:00,17.1,7.7,30.21,SE,125,0.0,2.0,66,0.00,,,0.00,0,Wunderground v.1.15,2013-02-18 00:21:00,
2013-02-17 18:26:00,17.1,7.7,30.21,SE,125,2.0,5.0,66,0.00,,,0.00,0,Wunderground v.1.15,2013-02-18 00:26:00,
2013-02-17 18:31:00,17.1,8.0,30.21,SE,125,0.0,1.0,67,0.00,,,0.00,0,Wunderground v.1.15,2013-02-18 00:31:00,
2013-02-17 18:36:00,17.0,7.9,30.21,SE,125,0.0,2.0,67,0.00,,,0.00,0,Wunderground v.1.15,2013-02-18 00:36:00,
2013-02-17 18:41:00,17.0,7.9,30.21,SE,125,1.0,7.0,67,0.00,,,0.00,0,Wunderground v.1.15,2013-02-18 00:41:00,
2013-02-17 18:46:00,17.0,7.9,30.21,SE,125,1.0,7.0,67,0.00,,,0.00,0,Wunderground v.1.15,2013-02-18 00:46:00,
2013-02-17 18:51:00,17.1,8.3,30.21,ESE,123,2.0,4.0,68,0.00,,,0.00,0,Wunderground v.1.15,2013-02-18 00:51:00,
2013-02-17 18:56:00,17.1,8.3,30.20,ESE,123,1.0,4.0,68,0.00,,,0.00,0,Wunderground v.1.15,2013-02-18 00:56:00,
2013-02-17 19:01:00,17.2,8.4,30.20,ESE,123,2.0,5.0,68,0.00,,,0.00,0,Wunderground v.1.15,2013-02-18 01:01:00,
2013-02-17 19:06:00,17.4,8.6,30.20,SE,124,2.0,9.0,68,0.00,,,0.00,0,Wunderground v.1.15,2013-02-18 01:06:00,
2013-02-17 19:11:00,17.8,9.0,30.20,SE,132,5.0,10.0,68,0.00,,,0.00,0,Wunderground v.1.15,2013-02-18 01:11:00,
2013-02-17 19:16:00,18.3,9.5,30.20,ESE,119,4.0,10.0,68,0.00,,,0.00,0,Wunderground v.1.15,2013-02-18 01:16:00,
2013-02-17 19:21:00,18.7,9.6,30.19,ESE,115,5.0,7.0,67,0.00,,,0.00,0,Wunderground v.1.15,2013-02-18 01:21:00,
2013-02-17 19:26:00,18.9,9.7,30.19,ESE,112,6.0,8.0,67,0.00,,,0.00,0,Wunderground v.1.15,2013-02-18 01:26:00,
2013-02-17 19:31:00,19.0,10.2,30.19,ESE,108,5.0,7.0,68,0.00,,,0.00,0,Wunderground v.1.15,2013-02-18 01:31:00,
2013-02-17 19:36:00,19.1,10.3,30.18,ESE,107,6.0,8.0,68,0.00,,,0.00,0,Wunderground v.1.15,2013-02-18 01:36:00,
2013-02-17 19:41:00,19.2,10.4,30.18,ESE,114,5.0,7.0,68,0.00,,,0.00,0,Wunderground v.1.15,2013-02-18 01:41:00,
2013-02-17 19:46:00,19.3,10.5,30.18,ESE,109,8.0,9.0,68,0.00,,,0.00,0,Wunderground v.1.15,2013-02-18 01:46:00,
2013-02-17 19:52:00,19.5,10.3,30.18,ESE,119,4.0,7.0,67,0.00,,,0.00,0,Wunderground v.1.15,2013-02-18 01:52:00,
2013-02-17 19:57:00,19.5,10.3,30.17,ESE,121,6.0,11.0,67,0.00,,,0.00,0,Wunderground v.1.15,2013-02-18 01:57:00,
2013-02-17 20:02:00,19.6,10.1,30.17,ESE,116,4.0,8.0,66,0.00,,,0.00,0,Wunderground v.1.15,2013-02-18 02:02:00,
2013-02-17 20:07:00,19.7,10.2,30.17,ESE,122,5.0,8.0,66,0.00,,,0.00,0,Wunderground v.1.15,2013-02-18 02:07:00,
2013-02-17 20:12:00,19.7,10.2,30.17,ESE,120,6.0,7.0,66,0.00,,,0.00,0,Wunderground v.1.15,2013-02-18 02:12:00,
2013-02-17 20:17:00,19.9,10.4,30.17,ESE,109,6.0,12.0,66,0.00,,,0.00,0,Wunderground v.1.15,2013-02-18 02:17:00,
2013-02-17 20:22:00,20.1,10.6,30.17,ESE,112,5.0,8.0,66,0.00,,,0.00,0,Wunderground v.1.15,2013-02-18 02:22:00,
2013-02-17 20:27:00,20.2,10.6,30.16,ESE,122,5.0,8.0,66,0.00,,,0.00,0,Wunderground v.1.15,2013-02-18 02:27:00,
2013-02-17 20:32:00,20.3,10.7,30.17,ESE,122,7.0,9.0,66,0.00,,,0.00,0,Wunderground v.1.15,2013-02-18 02:32:00,
2013-02-17 20:37:00,20.7,10.8,30.17,SE,126,11.0,12.0,65,0.00,,,0.00,0,Wunderground v.1.15,2013-02-18 02:37:00,
2013-02-17 20:42:00,20.8,10.9,30.17,ESE,117,8.0,12.0,65,0.00,,,0.00,0,Wunderground v.1.15,2013-02-18 02:42:00,
2013-02-17 20:47:00,21.0,11.1,30.17,ESE,119,9.0,12.0,65,0.00,,,0.00,0,Wunderground v.1.15,2013-02-18 02:47:00,
2013-02-17 20:52:00,21.2,11.3,30.17,SE,128,7.0,11.0,65,0.00,,,0.00,0,Wunderground v.1.15,2013-02-18 02:52:00,
2013-02-17 20:57:00,21.3,11.4,30.16,ESE,120,6.0,11.0,65,0.00,,,0.00,0,Wunderground v.1.15,2013-02-18 02:57:00,
2013-02-17 21:02:00,21.5,11.5,30.16,SE,138,6.0,8.0,65,0.00,,,0.00,0,Wunderground v.1.15,2013-02-18 03:02:00,
2013-02-17 21:07:00,21.6,11.3,30.17,ESE,123,4.0,12.0,64,0.00,,,0.00,0,Wunderground v.1.15,2013-02-18 03:07:00,
2013-02-17 21:12:00,21.7,11.4,30.17,SE,131,6.0,17.0,64,0.00,,,0.00,0,Wunderground v.1.15,2013-02-18 03:12:00,
2013-02-17 21:17:00,21.7,11.4,30.16,SE,133,5.0,17.0,64,0.00,,,0.00,0,Wunderground v.1.15,2013-02-18 03:17:00,
2013-02-17 21:22:00,21.8,11.5,30.16,SE,125,7.0,9.0,64,0.00,,,0.00,0,Wunderground v.1.15,2013-02-18 03:22:00,
2013-02-17 21:27:00,22.0,11.7,30.16,SE,129,6.0,12.0,64,0.00,,,0.00,0,Wunderground v.1.15,2013-02-18 03:27:00,
2013-02-17 21:32:00,22.1,11.8,30.16,SE,142,8.0,18.0,64,0.00,,,0.00,0,Wunderground v.1.15,2013-02-18 03:32:00,
2013-02-17 21:37:00,22.2,11.5,30.15,East,99,13.0,18.0,63,0.00,,,0.00,0,Wunderground v.1.15,2013-02-18 03:37:00,
2013-02-17 21:43:00,22.4,11.7,30.15,ESE,109,9.0,15.0,63,0.00,,,0.00,0,Wunderground v.1.15,2013-02-18 03:43:00,
2013-02-17 21:48:00,22.5,12.1,30.15,ESE,115,11.0,19.0,64,0.00,,,0.00,0,Wunderground v.1.15,2013-02-18 03:48:00,
2013-02-17 21:53:00,22.7,12.3,30.15,SE,130,8.0,15.0,64,0.00,,,0.00,0,Wunderground v.1.15,2013-02-18 03:53:00,
2013-02-17 21:58:00,22.9,12.5,30.14,SE,138,10.0,18.0,64,0.00,,,0.00,0,Wunderground v.1.15,2013-02-18 03:58:00,
2013-02-17 22:03:00,23.1,14.8,30.14,SE,130,11.0,16.0,70,0.00,,,0.00,0,Wunderground v.1.15,2013-02-18 04:03:00,
2013-02-17 22:07:00,23.2,12.8,30.14,SE,126,6.0,16.0,64,0.00,,,0.00,0,Wunderground v.1.15,2013-02-18 04:07:00,
2013-02-17 22:12:00,23.3,12.9,30.14,SE,133,14.0,16.0,64,0.00,,,0.00,0,Wunderground v.1.15,2013-02-18 04:12:00,
2013-02-17 22:17:00,23.4,13.0,30.14,SE,125,6.0,19.0,64,0.00,,,0.00,0,Wunderground v.1.15,2013-02-18 04:17:00,
2013-02-17 22:22:00,23.5,13.1,30.14,SE,128,7.0,14.0,64,0.00,,,0.00,0,Wunderground v.1.15,2013-02-18 04:22:00,
2013-02-17 22:27:00,23.6,13.5,30.13,SE,137,8.0,14.0,65,0.00,,,0.00,0,Wunderground v.1.15,2013-02-18 04:27:00,
2013-02-17 22:32:00,23.6,13.5,30.13,SE,131,9.0,20.0,65,0.00,,,0.00,0,Wunderground v.1.15,2013-02-18 04:32:00,
2013-02-17 22:37:00,23.7,14.0,30.13,SE,135,11.0,20.0,66,0.00,,,0.00,0,Wunderground v.1.15,2013-02-18 04:37:00,
2013-02-17 22:42:00,23.8,14.1,30.13,SE,134,15.0,20.0,66,0.00,,,0.00,0,Wunderground v.1.15,2013-02-18 04:42:00,
2013-02-17 22:47:00,23.9,14.2,30.12,SSE,161,14.0,20.0,66,0.00,,,0.00,0,Wunderground v.1.15,2013-02-18 04:47:00,
2013-02-17 22:52:00,24.0,14.6,30.12,SSE,148,11.0,13.0,67,0.00,,,0.00,0,Wunderground v.1.15,2013-02-18 04:52:00,
2013-02-17 22:57:00,24.0,14.6,30.11,SSE,154,8.0,18.0,67,0.00,,,0.00,0,Wunderground v.1.15,2013-02-18 04:57:00,
2013-02-17 23:00:00,24.0,14.6,30.11,SE,140,11.0,12.0,67,0.00,,,0.00,0,Wunderground v.1.15,2013-02-18 05:00:00,
2013-02-17 23:05:00,24.2,14.8,30.11,SE,141,12.0,20.0,67,0.00,,,0.00,0,Wunderground v.1.15,2013-02-18 05:05:00,
2013-02-17 23:10:00,24.3,15.3,30.10,ESE,111,7.0,12.0,68,0.00,,,0.00,0,Wunderground v.1.15,2013-02-18 05:10:00,
2013-02-17 23:15:00,24.4,15.3,30.10,South,171,9.0,18.0,68,0.00,,,0.00,0,Wunderground v.1.15,2013-02-18 05:15:00,
2013-02-17 23:20:00,24.5,15.4,30.10,SE,126,16.0,22.0,68,0.00,,,0.00,0,Wunderground v.1.15,2013-02-18 05:20:00,
2013-02-17 23:25:00,24.7,16.0,30.10,SSE,167,8.0,22.0,69,0.00,,,0.00,0,Wunderground v.1.15,2013-02-18 05:25:00,
2013-02-17 23:30:00,24.8,16.1,30.10,SE,145,11.0,13.0,69,0.00,,,0.00,0,Wunderground v.1.15,2013-02-18 05:30:00,
2013-02-17 23:35:00,25.0,16.3,30.09,SE,138,14.0,21.0,69,0.00,,,0.00,0,Wunderground v.1.15,2013-02-18 05:35:00,
2013-02-17 23:40:00,25.0,16.3,30.09,SE,142,17.0,17.0,69,0.00,,,0.00,0,Wunderground v.1.15,2013-02-18 05:40:00,
2013-02-17 23:45:00,25.1,16.4,30.09,SE,142,14.0,21.0,69,0.00,,,0.00,0,Wunderground v.1.15,2013-02-18 05:45:00,
2013-02-17 23:50:00,25.1,16.4,30.08,SE,134,6.0,13.0,69,0.00,,,0.00,0,Wunderground v.1.15,2013-02-18 05:50:00,
2013-02-17 23:55:00,25.0,16.6,30.08,SE,132,12.0,18.0,70,0.00,,,0.00,0,Wunderground v.1.15,2013-02-18 05:55:00,